Huron, SD

11:57 PM CST on February 20, 2018 (GMT -0600)
Huron Regional

Weather History for KHON - April, 2014

Change the Weather History Date:

Wednesday, April 2, 2014

  Actual Average Record
Temperature  
Mean Temperature 31 °F 40 °F  
Max Temperature 41 °F 52 °F 81 °F (1882)
Min Temperature 20 °F 29 °F 7 °F (1975)
Degree Days  
Heating Degree Days 34 24  
Month to date heating degree days 76 49  
Since 1 July heating degree days 7497 6868  
Cooling Degree Days 0 0  
Month to date cooling degree days 0 0  
Year to date cooling degree days 0 0  
Moisture  
Dew Point 22 °F    
Average Humidity 70    
Maximum Humidity 91    
Minimum Humidity 48    
Precipitation  
Precipitation T in 0.07 in 0.75 in (1988)
Month to date precipitation T 0.13  
Year to date precipitation 1.03 2.69  
Snow  
Snow T in 0.20 in 2.50 in (1937)
Month to date snowfall T 0.4  
Since 1 July snowfall 26.4 40.3  
Snow Depth 0.00 in    
Sea Level Pressure  
Sea Level Pressure 30.09 in    
Wind  
Wind Speed 9 mph (East)    
Max Wind Speed 18 mph    
Max Gust Speed 22 mph    
Visibility 9 miles    
Events Snow    
T = Trace of Precipitation, MM = Missing Value Source: NWS Daily Summary

Daily Weather History Graph

Daily Weather History Graph

Search for Another Location

Airport or City:

Trip Planner

Search our weather history database for the weather conditions in past years. The results will help you decide how hot, cold, wet, or windy it might be!

Date:

Astronomy

Apr. 02, 2014 Rise Set
Actual Time 7:12 AM CDT 8:01 PM CDT
Civil Twilight 6:42 AM CDT 8:30 PM CDT
Nautical Twilight 6:07 AM CDT 9:06 PM CDT
Astronomical Twilight 5:31 AM CDT 9:42 PM CDT
Moon 8:51 AM CDT (4/2) 11:33 PM CDT (4/2)
Length of Visible Light 13h 48m
Length of Day
12h 49m
Waxing Crescent, 10% of the Moon is Illuminated
Apr 2
Waxing Crescent
Apr 7
First Quarter
Apr 15
Full
Apr 22
Last Quarter
Apr 29
New

Hourly Weather History & Observations

Time (CDT) Temp. Windchill Dew Point Humidity Pressure Visibility Wind Dir Wind Speed Gust Speed Precip Events Conditions
12:55 AM 21.0 °F 13.4 °F 18.0 °F 88% 30.20 in 10.0 mi NE 5.8 mph - N/A   Clear
1:55 AM 21.0 °F 16.2 °F 18.0 °F 88% 30.19 in 10.0 mi ENE 3.5 mph - N/A   Mostly Cloudy
2:55 AM 23.0 °F 15.8 °F 19.0 °F 85% 30.17 in 10.0 mi ENE 5.8 mph - N/A   Overcast
3:55 AM 23.0 °F 15.8 °F 19.0 °F 85% 30.17 in 10.0 mi East 5.8 mph - N/A   Overcast
4:55 AM 21.9 °F 14.5 °F 18.0 °F 85% 30.16 in 10.0 mi NE 5.8 mph - N/A   Mostly Cloudy
5:55 AM 19.9 °F 11.1 °F 17.1 °F 89% 30.14 in 10.0 mi ENE 6.9 mph - N/A   Clear
7:55 AM 21.9 °F 11.0 °F 17.1 °F 82% 30.14 in 10.0 mi ENE 10.4 mph - N/A   Clear
8:55 AM 24.1 °F 13.7 °F 18.0 °F 77% 30.14 in 10.0 mi East 10.4 mph - N/A   Clear
9:55 AM 27.0 °F 19.5 °F 18.0 °F 69% 30.15 in 10.0 mi East 6.9 mph - N/A   Overcast
10:55 AM 28.9 °F 21.1 °F 18.0 °F 64% 30.14 in 10.0 mi East 8.1 mph - N/A   Partly Cloudy
11:55 AM 30.9 °F 23.5 °F 19.9 °F 64% 30.14 in 10.0 mi East 8.1 mph - N/A   Mostly Cloudy
12:55 PM 34.0 °F 26.0 °F 19.9 °F 56% 30.12 in 10.0 mi ESE 10.4 mph - N/A   Mostly Cloudy
1:55 PM 34.0 °F 26.6 °F 21.0 °F 59% 30.10 in 10.0 mi East 9.2 mph - N/A   Mostly Cloudy
2:55 PM 37.0 °F 28.5 °F 21.0 °F 52% 30.05 in 10.0 mi ENE 13.8 mph - N/A   Overcast
3:55 PM 39.9 °F 32.5 °F 21.9 °F 49% 30.02 in 10.0 mi East 12.7 mph - N/A   Scattered Clouds
4:55 PM 39.0 °F 30.6 °F 24.1 °F 55% 30.01 in 10.0 mi East 15.0 mph - N/A   Overcast
5:55 PM 37.0 °F 28.9 °F 25.0 °F 62% 30.02 in 10.0 mi East 12.7 mph - N/A   Overcast
6:55 PM 36.0 °F 26.7 °F 26.1 °F 67% 30.01 in 10.0 mi East 15.0 mph - N/A   Overcast
7:55 PM 35.1 °F 27.9 °F 26.1 °F 70% 30.01 in 10.0 mi East 9.2 mph - N/A   Overcast
8:55 PM 35.1 °F 29.3 °F 27.0 °F 72% 30.04 in 10.0 mi East 6.9 mph - 0.00 in   Overcast
9:55 PM 34.0 °F 27.2 °F 28.9 °F 82% 30.05 in 5.0 mi East 8.1 mph - 0.00 in Snow Light Snow
10:18 PM 33.1 °F 26.9 °F 30.0 °F 89% 30.00 in 5.0 mi East 6.9 mph - 0.00 in Snow Light Snow
10:32 PM 33.1 °F 25.5 °F 30.0 °F 89% 30.00 in 3.0 mi East 9.2 mph - 0.00 in Snow Light Snow
10:55 PM 33.1 °F 26.1 °F 30.9 °F 92% 30.03 in 3.0 mi East 8.1 mph - 0.00 in Snow Light Snow
11:55 PM 33.1 °F 25.5 °F 30.9 °F 92% 30.02 in 4.0 mi ENE 9.2 mph - 0.00 in   Overcast